Year,Month,Day,Hour,Minute,Value (Times are PST for windspeed in km/hr)
2006,09,09,00,00,1.90
2006,09,09,00,01,6.60
2006,09,09,00,02,1.70
2006,09,09,00,03,1.10
2006,09,09,00,04,1.90
2006,09,09,00,05,4.80
2006,09,09,00,06,10.30
2006,09,09,00,07,6.30
2006,09,09,00,08,6.80
2006,09,09,00,09,2.00
2006,09,09,00,10,5.10
2006,09,09,00,11,2.50
2006,09,09,00,12,0.30
2006,09,09,00,13,0.60
2006,09,09,00,14,1.20
2006,09,09,00,15,1.00
2006,09,09,00,16,0.10
2006,09,09,00,17,1.30
2006,09,09,00,18,1.90
2006,09,09,00,19,2.00
2006,09,09,00,20,1.20
2006,09,09,00,21,3.00
2006,09,09,00,22,6.00
2006,09,09,00,23,3.90
2006,09,09,00,24,5.00
2006,09,09,00,25,7.90
2006,09,09,00,26,7.20
2006,09,09,00,27,6.40
2006,09,09,00,28,7.30
2006,09,09,00,29,5.20
2006,09,09,00,30,6.10
2006,09,09,00,31,2.10
2006,09,09,00,32,0.70
2006,09,09,00,33,0.00
2006,09,09,00,34,1.20
2006,09,09,00,35,2.50
2006,09,09,00,36,0.40
2006,09,09,00,37,0.00
2006,09,09,00,38,0.00
2006,09,09,00,39,0.00
2006,09,09,00,40,0.00
2006,09,09,00,41,0.00
2006,09,09,00,42,0.00
2006,09,09,00,43,0.00
2006,09,09,00,44,0.00
2006,09,09,00,45,0.00
2006,09,09,00,46,0.30
2006,09,09,00,47,2.30
2006,09,09,00,48,3.30
2006,09,09,00,49,3.30
2006,09,09,00,50,3.10
2006,09,09,00,51,1.20
2006,09,09,00,52,0.30
2006,09,09,00,53,0.20
2006,09,09,00,54,0.60
2006,09,09,00,55,0.90
2006,09,09,00,56,1.50
2006,09,09,00,57,1.00
2006,09,09,00,58,0.70
2006,09,09,00,59,0.00
2006,09,09,01,00,0.00
2006,09,09,01,01,0.00
2006,09,09,01,02,0.00
2006,09,09,01,03,0.60
2006,09,09,01,04,1.10
2006,09,09,01,05,1.40
2006,09,09,01,06,0.90
2006,09,09,01,07,0.00
2006,09,09,01,08,0.00
2006,09,09,01,09,0.00
2006,09,09,01,10,0.00
2006,09,09,01,11,0.00
2006,09,09,01,12,0.00
2006,09,09,01,13,0.00
2006,09,09,01,14,0.00
2006,09,09,01,15,0.00
2006,09,09,01,16,0.10
2006,09,09,01,17,0.30
2006,09,09,01,18,1.10
2006,09,09,01,19,2.30
2006,09,09,01,20,3.00
2006,09,09,01,21,3.10
2006,09,09,01,22,2.00
2006,09,09,01,23,1.60
2006,09,09,01,24,0.00
2006,09,09,01,25,0.50
2006,09,09,01,26,0.60
2006,09,09,01,27,0.00
2006,09,09,01,28,0.10
2006,09,09,01,29,0.20
2006,09,09,01,30,0.00
2006,09,09,01,31,0.00
2006,09,09,01,32,0.00
2006,09,09,01,33,0.00
2006,09,09,01,34,0.00
2006,09,09,01,35,0.00
2006,09,09,01,36,0.00
2006,09,09,01,37,0.00
2006,09,09,01,38,0.00
2006,09,09,01,39,0.00
2006,09,09,01,40,0.00
2006,09,09,01,41,0.00
2006,09,09,01,42,0.00
2006,09,09,01,43,0.00
2006,09,09,01,44,0.00
2006,09,09,01,45,0.00
2006,09,09,01,46,0.00
2006,09,09,01,47,0.00
2006,09,09,01,48,0.00
2006,09,09,01,49,0.00
2006,09,09,01,50,0.00
2006,09,09,01,51,0.00
2006,09,09,01,52,0.00
2006,09,09,01,53,0.00
2006,09,09,01,54,0.00
2006,09,09,01,55,0.00
2006,09,09,01,56,0.00
2006,09,09,01,57,0.00
2006,09,09,01,58,0.00
2006,09,09,01,59,0.00
2006,09,09,02,00,0.40
2006,09,09,02,01,0.90
2006,09,09,02,02,0.20
2006,09,09,02,03,0.00
2006,09,09,02,04,0.00
2006,09,09,02,05,0.20
2006,09,09,02,06,0.20
2006,09,09,02,07,0.00
2006,09,09,02,08,0.00
2006,09,09,02,09,0.00
2006,09,09,02,10,0.00
2006,09,09,02,11,0.00
2006,09,09,02,12,0.10
2006,09,09,02,13,0.50
2006,09,09,02,14,0.00
2006,09,09,02,15,0.40
2006,09,09,02,16,0.10
2006,09,09,02,17,0.30
2006,09,09,02,18,1.40
2006,09,09,02,19,1.10
2006,09,09,02,20,0.70
2006,09,09,02,21,0.00
2006,09,09,02,22,0.00
2006,09,09,02,23,0.00
2006,09,09,02,24,0.00
2006,09,09,02,25,0.00
2006,09,09,02,26,0.00
2006,09,09,02,27,0.20
2006,09,09,02,28,0.00
2006,09,09,02,29,0.00
2006,09,09,02,30,0.10
2006,09,09,02,31,0.10
2006,09,09,02,32,0.00
2006,09,09,02,33,1.50
2006,09,09,02,34,2.80
2006,09,09,02,35,0.60
2006,09,09,02,36,0.20
2006,09,09,02,37,0.90
2006,09,09,02,38,2.10
2006,09,09,02,39,2.60
2006,09,09,02,40,2.00
2006,09,09,02,41,3.90
2006,09,09,02,42,1.30
2006,09,09,02,43,1.90
2006,09,09,02,44,1.00
2006,09,09,02,45,4.60
2006,09,09,02,46,7.30
2006,09,09,02,47,2.20
2006,09,09,02,48,3.30
2006,09,09,02,49,5.70
2006,09,09,02,50,4.80
2006,09,09,02,51,6.00
2006,09,09,02,52,8.90
2006,09,09,02,53,5.00
2006,09,09,02,54,5.70
2006,09,09,02,55,6.00
2006,09,09,02,56,8.60
2006,09,09,02,57,3.50
2006,09,09,02,58,3.70
2006,09,09,02,59,2.80
2006,09,09,03,00,5.80
2006,09,09,03,01,3.90
2006,09,09,03,02,5.60
2006,09,09,03,03,5.10
2006,09,09,03,04,5.20
2006,09,09,03,05,5.10
2006,09,09,03,06,2.20
2006,09,09,03,07,5.90
2006,09,09,03,08,5.50
2006,09,09,03,09,6.70
2006,09,09,03,10,4.80
2006,09,09,03,11,6.20
2006,09,09,03,12,4.30
2006,09,09,03,13,4.80
2006,09,09,03,14,4.70
2006,09,09,03,15,4.90
2006,09,09,03,16,5.10
2006,09,09,03,17,2.30
2006,09,09,03,18,4.10
2006,09,09,03,19,3.10
2006,09,09,03,20,3.80
2006,09,09,03,21,2.70
2006,09,09,03,22,4.10
2006,09,09,03,23,4.40
2006,09,09,03,24,2.60
2006,09,09,03,25,0.10
2006,09,09,03,26,1.00
2006,09,09,03,27,0.40
2006,09,09,03,28,0.40
2006,09,09,03,29,0.00
2006,09,09,03,30,0.80
2006,09,09,03,31,0.50
2006,09,09,03,32,0.00
2006,09,09,03,33,0.70
2006,09,09,03,34,0.10
2006,09,09,03,35,0.20
2006,09,09,03,36,0.30
2006,09,09,03,37,0.10
2006,09,09,03,38,0.10
2006,09,09,03,39,0.00
2006,09,09,03,40,0.20
2006,09,09,03,41,0.20
2006,09,09,03,42,0.20
2006,09,09,03,43,0.00
2006,09,09,03,44,0.00
2006,09,09,03,45,0.00
2006,09,09,03,46,0.00
2006,09,09,03,47,0.10
2006,09,09,03,48,1.00
2006,09,09,03,49,1.40
2006,09,09,03,50,4.10
2006,09,09,03,51,4.10
2006,09,09,03,52,3.00
2006,09,09,03,53,2.90
2006,09,09,03,54,6.80
2006,09,09,03,55,5.80
2006,09,09,03,56,5.10
2006,09,09,03,57,6.60
2006,09,09,03,58,5.90
2006,09,09,03,59,5.30
2006,09,09,04,00,3.20
2006,09,09,04,01,4.60
2006,09,09,04,02,1.80
2006,09,09,04,03,3.00
2006,09,09,04,04,3.60
2006,09,09,04,05,0.50
2006,09,09,04,06,1.00
2006,09,09,04,07,0.00
2006,09,09,04,08,1.10
2006,09,09,04,09,0.60
2006,09,09,04,10,0.00
2006,09,09,04,11,0.00
2006,09,09,04,12,0.40
2006,09,09,04,13,1.10
2006,09,09,04,14,1.20
2006,09,09,04,15,2.50
2006,09,09,04,16,0.80
2006,09,09,04,17,0.20
2006,09,09,04,18,0.40
2006,09,09,04,19,3.60
2006,09,09,04,20,1.40
2006,09,09,04,21,0.80
2006,09,09,04,22,0.20
2006,09,09,04,23,1.50
2006,09,09,04,24,0.20
2006,09,09,04,25,0.00
2006,09,09,04,26,0.20
2006,09,09,04,27,0.40
2006,09,09,04,28,0.00
2006,09,09,04,29,0.00
2006,09,09,04,30,0.00
2006,09,09,04,31,0.00
2006,09,09,04,32,0.10
2006,09,09,04,33,0.70
2006,09,09,04,34,0.00
2006,09,09,04,35,0.00
2006,09,09,04,36,0.00
2006,09,09,04,37,0.00
2006,09,09,04,38,0.00
2006,09,09,04,39,0.10
2006,09,09,04,40,0.00
2006,09,09,04,41,1.00
2006,09,09,04,42,1.60
2006,09,09,04,43,0.40
2006,09,09,04,44,0.00
2006,09,09,04,45,0.30
2006,09,09,04,46,0.00
2006,09,09,04,47,0.00
2006,09,09,04,48,0.00
2006,09,09,04,49,1.10
2006,09,09,04,50,4.00
2006,09,09,04,51,4.60
2006,09,09,04,52,0.20
2006,09,09,04,53,1.60
2006,09,09,04,54,5.30
2006,09,09,04,55,3.10
2006,09,09,04,56,4.00
2006,09,09,04,57,2.90
2006,09,09,04,58,0.00
2006,09,09,04,59,0.30
2006,09,09,05,00,3.90
2006,09,09,05,01,0.80
2006,09,09,05,02,2.50
2006,09,09,05,03,3.50
2006,09,09,05,04,1.60
2006,09,09,05,05,3.00
2006,09,09,05,06,6.20
2006,09,09,05,07,3.90
2006,09,09,05,08,5.60
2006,09,09,05,09,6.40
2006,09,09,05,10,3.50
2006,09,09,05,11,2.70
2006,09,09,05,12,3.40
2006,09,09,05,13,1.60
2006,09,09,05,14,0.20
2006,09,09,05,15,3.10
2006,09,09,05,16,5.60
2006,09,09,05,17,3.40
2006,09,09,05,18,2.40
2006,09,09,05,19,0.80
2006,09,09,05,20,1.50
2006,09,09,05,21,2.70
2006,09,09,05,22,0.10
2006,09,09,05,23,0.40
2006,09,09,05,24,2.80
2006,09,09,05,25,2.60
2006,09,09,05,26,0.00
2006,09,09,05,27,3.60
2006,09,09,05,28,4.70
2006,09,09,05,29,2.90
2006,09,09,05,30,7.40
2006,09,09,05,31,8.50
2006,09,09,05,32,1.20
2006,09,09,05,33,3.20
2006,09,09,05,34,2.30
2006,09,09,05,35,5.70
2006,09,09,05,36,4.40
2006,09,09,05,37,2.60
2006,09,09,05,38,2.50
2006,09,09,05,39,0.40
2006,09,09,05,40,2.70
2006,09,09,05,41,4.90
2006,09,09,05,42,6.80
2006,09,09,05,43,2.80
2006,09,09,05,44,1.10
2006,09,09,05,45,0.50
2006,09,09,05,46,4.10
2006,09,09,05,47,2.20
2006,09,09,05,48,1.80
2006,09,09,05,49,6.20
2006,09,09,05,50,3.50
2006,09,09,05,51,0.70
2006,09,09,05,52,4.20
2006,09,09,05,53,3.60
2006,09,09,05,54,4.00
2006,09,09,05,55,2.70
2006,09,09,05,56,3.70
2006,09,09,05,57,2.90
2006,09,09,05,58,6.40
2006,09,09,05,59,3.90
2006,09,09,06,00,3.10
2006,09,09,06,01,3.30
2006,09,09,06,02,3.90
2006,09,09,06,03,4.80
2006,09,09,06,04,7.50
2006,09,09,06,05,4.80
2006,09,09,06,06,5.20
2006,09,09,06,07,2.60
2006,09,09,06,08,4.20
2006,09,09,06,09,6.70
2006,09,09,06,10,3.90
2006,09,09,06,11,2.70
2006,09,09,06,12,3.70
2006,09,09,06,13,2.30
2006,09,09,06,14,1.70
2006,09,09,06,15,1.90
2006,09,09,06,16,1.30
2006,09,09,06,17,4.70
2006,09,09,06,18,2.40
2006,09,09,06,19,2.40
2006,09,09,06,20,1.70
2006,09,09,06,21,5.40
2006,09,09,06,22,7.60
2006,09,09,06,23,4.90
2006,09,09,06,24,3.50
2006,09,09,06,25,5.20
2006,09,09,06,26,4.90
2006,09,09,06,27,4.30
2006,09,09,06,28,3.00
2006,09,09,06,29,4.50
2006,09,09,06,30,4.80
2006,09,09,06,31,3.30
2006,09,09,06,32,6.20
2006,09,09,06,33,7.00
2006,09,09,06,34,7.60
2006,09,09,06,35,6.40
2006,09,09,06,36,2.20
2006,09,09,06,37,3.70
2006,09,09,06,38,3.10
2006,09,09,06,39,5.40
2006,09,09,06,40,1.20
2006,09,09,06,41,1.00
2006,09,09,06,42,1.90
2006,09,09,06,43,1.30
2006,09,09,06,44,0.20
2006,09,09,06,45,2.30
2006,09,09,06,46,7.00
2006,09,09,06,47,4.40
2006,09,09,06,48,3.10
2006,09,09,06,49,4.80
2006,09,09,06,50,4.10
2006,09,09,06,51,5.80
2006,09,09,06,52,6.00
2006,09,09,06,53,2.90
2006,09,09,06,54,4.60
2006,09,09,06,55,3.80
2006,09,09,06,56,0.40
2006,09,09,06,57,2.30
2006,09,09,06,58,2.30
2006,09,09,06,59,1.00
2006,09,09,07,00,2.30
2006,09,09,07,01,4.10
2006,09,09,07,02,2.90
2006,09,09,07,03,1.80
2006,09,09,07,04,0.80
2006,09,09,07,05,1.40
2006,09,09,07,06,0.30
2006,09,09,07,07,4.20
2006,09,09,07,08,1.10
2006,09,09,07,09,0.10
2006,09,09,07,10,0.60
2006,09,09,07,11,4.70
2006,09,09,07,12,6.70
2006,09,09,07,13,8.10
2006,09,09,07,14,5.00
2006,09,09,07,15,8.50
2006,09,09,07,16,7.20
2006,09,09,07,17,4.50
2006,09,09,07,18,1.20
2006,09,09,07,19,6.30
2006,09,09,07,20,7.70
2006,09,09,07,21,4.10
2006,09,09,07,22,5.20
2006,09,09,07,23,8.50
2006,09,09,07,24,8.50
2006,09,09,07,25,4.60
2006,09,09,07,26,5.20
2006,09,09,07,27,2.90
2006,09,09,07,28,2.10
2006,09,09,07,29,1.00
2006,09,09,07,30,1.40
2006,09,09,07,31,0.80
2006,09,09,07,32,3.10
2006,09,09,07,33,5.50
2006,09,09,07,34,3.40
2006,09,09,07,35,1.50
2006,09,09,07,36,0.00
2006,09,09,07,37,3.80
2006,09,09,07,38,1.70
2006,09,09,07,39,1.80
2006,09,09,07,40,3.70
2006,09,09,07,41,4.30
2006,09,09,07,42,3.00
2006,09,09,07,43,3.40
2006,09,09,07,44,4.00
2006,09,09,07,45,2.90
2006,09,09,07,46,4.30
2006,09,09,07,47,3.90
2006,09,09,07,48,1.80
2006,09,09,07,49,1.60
2006,09,09,07,50,3.90
2006,09,09,07,51,7.60
2006,09,09,07,52,6.60
2006,09,09,07,53,1.90
2006,09,09,07,54,4.70
2006,09,09,07,55,6.80
2006,09,09,07,56,7.30
2006,09,09,07,57,5.10
2006,09,09,07,58,6.40
2006,09,09,07,59,7.00
2006,09,09,08,00,7.60
2006,09,09,08,01,5.10
2006,09,09,08,02,3.60
2006,09,09,08,03,3.10
2006,09,09,08,04,2.50
2006,09,09,08,05,6.10
2006,09,09,08,06,7.10
2006,09,09,08,07,6.80
2006,09,09,08,08,4.90
2006,09,09,08,09,8.90
2006,09,09,08,10,7.10
2006,09,09,08,11,6.10
2006,09,09,08,12,9.10
2006,09,09,08,13,14.20
2006,09,09,08,14,5.30
2006,09,09,08,15,5.70
2006,09,09,08,16,1.90
2006,09,09,08,17,7.00
2006,09,09,08,18,14.60
2006,09,09,08,19,18.30
2006,09,09,08,20,13.40
2006,09,09,08,21,12.20
2006,09,09,08,22,17.80
2006,09,09,08,23,12.90
2006,09,09,08,24,8.70
2006,09,09,08,25,14.10
2006,09,09,08,26,5.90
2006,09,09,08,27,15.60
2006,09,09,08,28,13.90
2006,09,09,08,29,16.30
2006,09,09,08,30,17.00
2006,09,09,08,31,14.20
2006,09,09,08,32,12.60
2006,09,09,08,33,4.70
2006,09,09,08,34,8.00
2006,09,09,08,35,10.00
2006,09,09,08,36,5.40
2006,09,09,08,37,4.90
2006,09,09,08,38,12.70
2006,09,09,08,39,11.30
2006,09,09,08,40,8.10
2006,09,09,08,41,4.30
2006,09,09,08,42,7.40
2006,09,09,08,43,12.60
2006,09,09,08,44,7.90
2006,09,09,08,45,4.60
2006,09,09,08,46,5.40
2006,09,09,08,47,6.60
2006,09,09,08,48,8.80
2006,09,09,08,49,4.80
2006,09,09,08,50,8.90
2006,09,09,08,51,4.30
2006,09,09,08,52,9.00
2006,09,09,08,53,16.90
2006,09,09,08,54,8.70
2006,09,09,08,55,5.60
2006,09,09,08,56,10.20
2006,09,09,08,57,14.00
2006,09,09,08,58,12.30
2006,09,09,08,59,11.80
2006,09,09,09,00,7.80
2006,09,09,09,01,10.50
2006,09,09,09,02,5.70
2006,09,09,09,03,6.00
2006,09,09,09,04,10.50
2006,09,09,09,05,9.20
2006,09,09,09,06,5.70
2006,09,09,09,07,11.70
2006,09,09,09,08,8.20
2006,09,09,09,09,8.60
2006,09,09,09,10,6.10
2006,09,09,09,11,11.30
2006,09,09,09,12,12.20
2006,09,09,09,13,6.60
2006,09,09,09,14,6.00
2006,09,09,09,15,10.40
2006,09,09,09,16,6.40
2006,09,09,09,17,8.80
2006,09,09,09,18,4.60
2006,09,09,09,19,9.30
2006,09,09,09,20,11.90
2006,09,09,09,21,8.00
2006,09,09,09,22,10.40
2006,09,09,09,23,12.10
2006,09,09,09,24,6.40
2006,09,09,09,25,6.20
2006,09,09,09,26,9.40
2006,09,09,09,27,9.90
2006,09,09,09,28,7.70
2006,09,09,09,29,8.10
2006,09,09,09,30,9.50
2006,09,09,09,31,9.70
2006,09,09,09,32,10.20
2006,09,09,09,33,8.40
2006,09,09,09,34,9.80
2006,09,09,09,35,10.10
2006,09,09,09,36,6.60
2006,09,09,09,37,9.20
2006,09,09,09,38,13.00
2006,09,09,09,39,18.60
2006,09,09,09,40,13.50
2006,09,09,09,41,13.10
2006,09,09,09,42,13.40
2006,09,09,09,43,11.70
2006,09,09,09,44,21.50
2006,09,09,09,45,15.40
2006,09,09,09,46,11.80
2006,09,09,09,47,11.70
2006,09,09,09,48,8.90
2006,09,09,09,49,8.00
2006,09,09,09,50,7.20
2006,09,09,09,51,15.40
2006,09,09,09,52,10.90
2006,09,09,09,53,10.10
2006,09,09,09,54,10.20
2006,09,09,09,55,15.00
2006,09,09,09,56,11.00
2006,09,09,09,57,8.80
2006,09,09,09,58,17.00
2006,09,09,09,59,10.70
2006,09,09,10,00,5.80
2006,09,09,10,01,7.00
2006,09,09,10,02,13.70
2006,09,09,10,03,14.90
2006,09,09,10,04,16.00
2006,09,09,10,05,14.50
2006,09,09,10,06,15.40
2006,09,09,10,07,21.20
2006,09,09,10,08,15.00
2006,09,09,10,09,16.90
2006,09,09,10,10,20.10
2006,09,09,10,11,15.40
2006,09,09,10,12,13.30
2006,09,09,10,13,17.00
2006,09,09,10,14,22.00
2006,09,09,10,15,17.10
2006,09,09,10,16,17.50
2006,09,09,10,17,18.30
2006,09,09,10,18,16.60
2006,09,09,10,19,17.10
2006,09,09,10,20,9.10
2006,09,09,10,21,5.10
2006,09,09,10,22,12.20
2006,09,09,10,23,18.80
2006,09,09,10,24,11.70
2006,09,09,10,25,12.30
2006,09,09,10,26,12.80
2006,09,09,10,27,6.30
2006,09,09,10,28,5.10
2006,09,09,10,29,11.30
2006,09,09,10,30,8.60
2006,09,09,10,31,11.00
2006,09,09,10,32,13.20
2006,09,09,10,33,16.70
2006,09,09,10,34,9.50
2006,09,09,10,35,15.00
2006,09,09,10,36,18.30
2006,09,09,10,37,18.50
2006,09,09,10,38,19.10
2006,09,09,10,39,15.40
2006,09,09,10,40,10.50
2006,09,09,10,41,11.70
2006,09,09,10,42,15.50
2006,09,09,10,43,10.90
2006,09,09,10,44,7.90
2006,09,09,10,45,8.90
2006,09,09,10,46,12.00
2006,09,09,10,47,15.40
2006,09,09,10,48,11.90
2006,09,09,10,49,11.00
2006,09,09,10,50,14.50
2006,09,09,10,51,18.00
2006,09,09,10,52,9.30
2006,09,09,10,53,15.70
2006,09,09,10,54,8.80
2006,09,09,10,55,13.50
2006,09,09,10,56,13.70
2006,09,09,10,57,7.30
2006,09,09,10,58,11.90
2006,09,09,10,59,6.90
2006,09,09,11,00,6.20
2006,09,09,11,01,8.70
2006,09,09,11,02,8.70
2006,09,09,11,03,9.50
2006,09,09,11,04,7.40
2006,09,09,11,05,10.70
2006,09,09,11,06,8.20
2006,09,09,11,07,10.40
2006,09,09,11,08,9.40
2006,09,09,11,09,6.00
2006,09,09,11,10,11.10
2006,09,09,11,11,9.20
2006,09,09,11,12,8.90
2006,09,09,11,13,4.20
2006,09,09,11,14,9.40
2006,09,09,11,15,10.50
2006,09,09,11,16,5.60
2006,09,09,11,17,13.00
2006,09,09,11,18,5.50
2006,09,09,11,19,11.50
2006,09,09,11,20,13.60
2006,09,09,11,21,20.30
2006,09,09,11,22,6.90
2006,09,09,11,23,11.00
2006,09,09,11,24,11.30
2006,09,09,11,25,11.10
2006,09,09,11,26,13.10
2006,09,09,11,27,12.10
2006,09,09,11,28,13.50
2006,09,09,11,29,11.60
2006,09,09,11,30,13.00
2006,09,09,11,31,18.70
2006,09,09,11,32,14.40
2006,09,09,11,33,12.20
2006,09,09,11,34,10.80
2006,09,09,11,35,19.50
2006,09,09,11,36,14.60
2006,09,09,11,37,16.90
2006,09,09,11,38,10.50
2006,09,09,11,39,9.70
2006,09,09,11,40,18.00
2006,09,09,11,41,15.90
2006,09,09,11,42,10.10
2006,09,09,11,43,13.10
2006,09,09,11,44,11.80
2006,09,09,11,45,5.50
2006,09,09,11,46,4.60
2006,09,09,11,47,7.60
2006,09,09,11,48,7.10
2006,09,09,11,49,9.70
2006,09,09,11,50,6.50
2006,09,09,11,51,10.90
2006,09,09,11,52,4.00
2006,09,09,11,53,7.00
2006,09,09,11,54,15.90
2006,09,09,11,55,13.30
2006,09,09,11,56,11.90
2006,09,09,11,57,18.00
2006,09,09,11,58,20.80
2006,09,09,11,59,9.70
2006,09,09,12,00,8.00
2006,09,09,12,01,9.50
2006,09,09,12,02,10.10
2006,09,09,12,03,7.30
2006,09,09,12,04,5.20
2006,09,09,12,05,10.40
2006,09,09,12,06,13.20
2006,09,09,12,07,20.70
2006,09,09,12,08,19.90
2006,09,09,12,09,8.00
2006,09,09,12,10,7.90
2006,09,09,12,11,8.20
2006,09,09,12,12,9.40
2006,09,09,12,13,12.20
2006,09,09,12,14,11.80
2006,09,09,12,15,17.60
2006,09,09,12,16,11.30
2006,09,09,12,17,21.20
2006,09,09,12,18,11.40
2006,09,09,12,19,12.30
2006,09,09,12,20,12.80
2006,09,09,12,21,12.20
2006,09,09,12,22,11.20
2006,09,09,12,23,4.90
2006,09,09,12,24,14.20
2006,09,09,12,25,8.20
2006,09,09,12,26,8.40
2006,09,09,12,27,4.00
2006,09,09,12,28,7.70
2006,09,09,12,29,9.00
2006,09,09,12,30,9.60
2006,09,09,12,31,18.30
2006,09,09,12,32,21.00
2006,09,09,12,33,9.30
2006,09,09,12,34,6.60
2006,09,09,12,35,7.80
2006,09,09,12,36,7.80
2006,09,09,12,37,9.50
2006,09,09,12,38,14.00
2006,09,09,12,39,15.00
2006,09,09,12,40,8.90
2006,09,09,12,41,9.90
2006,09,09,12,42,7.30
2006,09,09,12,43,8.20
2006,09,09,12,44,6.00
2006,09,09,12,45,6.90
2006,09,09,12,46,8.40
2006,09,09,12,47,6.70
2006,09,09,12,48,3.50
2006,09,09,12,49,12.20
2006,09,09,12,50,9.40
2006,09,09,12,51,5.50
2006,09,09,12,52,14.00
2006,09,09,12,53,9.00
2006,09,09,12,54,15.50
2006,09,09,12,55,12.20
2006,09,09,12,56,7.40
2006,09,09,12,57,7.30
2006,09,09,12,58,5.60
2006,09,09,12,59,9.90
2006,09,09,13,00,10.10
2006,09,09,13,01,11.40
2006,09,09,13,02,9.10
2006,09,09,13,03,6.60
2006,09,09,13,04,10.70
2006,09,09,13,05,11.50
2006,09,09,13,06,16.30
2006,09,09,13,07,12.80
2006,09,09,13,08,7.90
2006,09,09,13,09,8.60
2006,09,09,13,10,14.60
2006,09,09,13,11,8.10
2006,09,09,13,12,8.20
2006,09,09,13,13,10.10
2006,09,09,13,14,6.40
2006,09,09,13,15,11.30
2006,09,09,13,16,7.30
2006,09,09,13,17,8.90
2006,09,09,13,18,6.40
2006,09,09,13,19,9.80
2006,09,09,13,20,10.00
2006,09,09,13,21,8.90
2006,09,09,13,22,8.20
2006,09,09,13,23,8.40
2006,09,09,13,24,18.80
2006,09,09,13,25,16.70
2006,09,09,13,26,12.50
2006,09,09,13,27,10.70
2006,09,09,13,28,17.80
2006,09,09,13,29,10.20
2006,09,09,13,30,6.60
2006,09,09,13,31,11.00
2006,09,09,13,32,10.80
2006,09,09,13,33,9.80
2006,09,09,13,34,10.10
2006,09,09,13,35,15.50
2006,09,09,13,36,19.20
2006,09,09,13,37,11.90
2006,09,09,13,38,17.30
2006,09,09,13,39,11.60
2006,09,09,13,40,14.30
2006,09,09,13,41,11.80
2006,09,09,13,42,10.60
2006,09,09,13,43,8.40
2006,09,09,13,44,12.50
2006,09,09,13,45,18.00
2006,09,09,13,46,20.00
2006,09,09,13,47,6.50
2006,09,09,13,48,16.30
2006,09,09,13,49,24.20
2006,09,09,13,50,16.70
2006,09,09,13,51,18.80
2006,09,09,13,52,18.30
2006,09,09,13,53,24.60
2006,09,09,13,54,12.40
2006,09,09,13,55,13.00
2006,09,09,13,56,17.50
2006,09,09,13,57,13.30
2006,09,09,13,58,26.00
2006,09,09,13,59,11.10
2006,09,09,14,00,19.50
2006,09,09,14,01,24.30
2006,09,09,14,02,17.90
2006,09,09,14,03,30.30
2006,09,09,14,04,22.60
2006,09,09,14,05,12.80
2006,09,09,14,06,10.00
2006,09,09,14,07,27.30
2006,09,09,14,08,8.40
2006,09,09,14,09,14.20
2006,09,09,14,10,12.60
2006,09,09,14,11,11.70
2006,09,09,14,12,19.00
2006,09,09,14,13,15.80
2006,09,09,14,14,8.20
2006,09,09,14,15,6.40
2006,09,09,14,16,13.00
2006,09,09,14,17,13.30
2006,09,09,14,18,12.20
2006,09,09,14,19,17.40
2006,09,09,14,20,11.90
2006,09,09,14,21,20.00
2006,09,09,14,22,6.60
2006,09,09,14,23,7.60
2006,09,09,14,24,14.70
2006,09,09,14,25,11.10
2006,09,09,14,26,11.20
2006,09,09,14,27,13.00
2006,09,09,14,28,20.80
2006,09,09,14,29,19.60
2006,09,09,14,30,14.90
2006,09,09,14,31,6.90
2006,09,09,14,32,14.00
2006,09,09,14,33,13.10
2006,09,09,14,34,16.00
2006,09,09,14,35,11.80
2006,09,09,14,36,11.80
2006,09,09,14,37,13.00
2006,09,09,14,38,14.70
2006,09,09,14,39,16.10
2006,09,09,14,40,16.70
2006,09,09,14,41,15.10
2006,09,09,14,42,13.00
2006,09,09,14,43,18.90
2006,09,09,14,44,14.80
2006,09,09,14,45,11.60
2006,09,09,14,46,13.10
2006,09,09,14,47,6.90
2006,09,09,14,48,1.90
2006,09,09,14,49,5.60
2006,09,09,14,50,16.00
2006,09,09,14,51,20.00
2006,09,09,14,52,23.30
2006,09,09,14,53,16.90
2006,09,09,14,54,17.10
2006,09,09,14,55,16.20
2006,09,09,14,56,6.30
2006,09,09,14,57,6.80
2006,09,09,14,58,12.70
2006,09,09,14,59,7.70
2006,09,09,15,00,11.50
2006,09,09,15,01,11.30
2006,09,09,15,02,7.20
2006,09,09,15,03,9.70
2006,09,09,15,04,21.70
2006,09,09,15,05,16.00
2006,09,09,15,06,15.80
2006,09,09,15,07,17.50
2006,09,09,15,08,12.00
2006,09,09,15,09,18.20
2006,09,09,15,10,15.20
2006,09,09,15,11,14.20
2006,09,09,15,12,10.10
2006,09,09,15,13,15.10
2006,09,09,15,14,22.70
2006,09,09,15,15,11.60
2006,09,09,15,16,14.90
2006,09,09,15,17,6.60
2006,09,09,15,18,9.80
2006,09,09,15,19,8.80
2006,09,09,15,20,12.20
2006,09,09,15,21,13.70
2006,09,09,15,22,7.90
2006,09,09,15,23,17.20
2006,09,09,15,24,11.30
2006,09,09,15,25,12.50
2006,09,09,15,26,17.10
2006,09,09,15,27,14.70
2006,09,09,15,28,10.80
2006,09,09,15,29,10.50
2006,09,09,15,30,12.70
2006,09,09,15,31,8.60
2006,09,09,15,32,9.00
2006,09,09,15,33,9.30
2006,09,09,15,34,9.40
2006,09,09,15,35,11.70
2006,09,09,15,36,18.10
2006,09,09,15,37,20.80
2006,09,09,15,38,15.70
2006,09,09,15,39,14.40
2006,09,09,15,40,19.60
2006,09,09,15,41,11.70
2006,09,09,15,42,13.70
2006,09,09,15,43,13.00
2006,09,09,15,44,13.90
2006,09,09,15,45,12.10
2006,09,09,15,46,20.40
2006,09,09,15,47,9.60
2006,09,09,15,48,6.70
2006,09,09,15,49,11.90
2006,09,09,15,50,25.10
2006,09,09,15,51,20.00
2006,09,09,15,52,13.40
2006,09,09,15,53,11.60
2006,09,09,15,54,8.60
2006,09,09,15,55,17.80
2006,09,09,15,56,14.40
2006,09,09,15,57,15.20
2006,09,09,15,58,15.80
2006,09,09,15,59,18.90
2006,09,09,16,00,24.20
2006,09,09,16,01,19.20
2006,09,09,16,02,21.40
2006,09,09,16,03,22.10
2006,09,09,16,04,23.20
2006,09,09,16,05,22.40
2006,09,09,16,06,13.60
2006,09,09,16,07,10.90
2006,09,09,16,08,12.20
2006,09,09,16,09,22.60
2006,09,09,16,10,11.70
2006,09,09,16,11,20.10
2006,09,09,16,12,24.50
2006,09,09,16,13,19.00
2006,09,09,16,14,21.60
2006,09,09,16,15,26.50
2006,09,09,16,16,18.60
2006,09,09,16,17,22.20
2006,09,09,16,18,12.20
2006,09,09,16,19,12.70
2006,09,09,16,20,15.60
2006,09,09,16,21,18.40
2006,09,09,16,22,17.90
2006,09,09,16,23,21.60
2006,09,09,16,24,18.90
2006,09,09,16,25,17.60
2006,09,09,16,26,19.10
2006,09,09,16,27,13.00
2006,09,09,16,28,24.50
2006,09,09,16,29,18.80
2006,09,09,16,30,17.90
2006,09,09,16,31,13.10
2006,09,09,16,32,20.50
2006,09,09,16,33,13.80
2006,09,09,16,34,12.20
2006,09,09,16,35,12.50
2006,09,09,16,36,16.40
2006,09,09,16,37,19.40
2006,09,09,16,38,9.70
2006,09,09,16,39,12.90
2006,09,09,16,40,18.30
2006,09,09,16,41,18.20
2006,09,09,16,42,15.10
2006,09,09,16,43,14.40
2006,09,09,16,44,14.30
2006,09,09,16,45,6.10
2006,09,09,16,46,13.30
2006,09,09,16,47,11.50
2006,09,09,16,48,13.30
2006,09,09,16,49,13.30
2006,09,09,16,50,18.10
2006,09,09,16,51,17.20
2006,09,09,16,52,12.20
2006,09,09,16,53,12.00
2006,09,09,16,54,12.70
2006,09,09,16,55,14.50
2006,09,09,16,56,9.50
2006,09,09,16,57,13.00
2006,09,09,16,58,10.20
2006,09,09,16,59,6.40
2006,09,09,17,00,12.80
2006,09,09,17,01,8.50
2006,09,09,17,02,10.90
2006,09,09,17,03,8.50
2006,09,09,17,04,5.60
2006,09,09,17,05,12.80
2006,09,09,17,06,13.00
2006,09,09,17,07,6.80
2006,09,09,17,08,8.70
2006,09,09,17,09,10.10
2006,09,09,17,10,12.40
2006,09,09,17,11,14.90
2006,09,09,17,12,9.30
2006,09,09,17,13,6.50
2006,09,09,17,14,5.10
2006,09,09,17,15,4.20
2006,09,09,17,16,5.10
2006,09,09,17,17,6.10
2006,09,09,17,18,9.70
2006,09,09,17,19,8.10
2006,09,09,17,20,9.90
2006,09,09,17,21,10.30
2006,09,09,17,22,3.50
2006,09,09,17,23,8.70
2006,09,09,17,24,11.10
2006,09,09,17,25,8.50
2006,09,09,17,26,13.20
2006,09,09,17,27,22.00
2006,09,09,17,28,9.50
2006,09,09,17,29,10.80
2006,09,09,17,30,4.50
2006,09,09,17,31,5.50
2006,09,09,17,32,4.00
2006,09,09,17,33,9.60
2006,09,09,17,34,11.60
2006,09,09,17,35,15.80
2006,09,09,17,36,13.40
2006,09,09,17,37,14.80
2006,09,09,17,38,7.40
2006,09,09,17,39,14.10
2006,09,09,17,40,9.00
2006,09,09,17,41,7.40
2006,09,09,17,42,10.50
2006,09,09,17,43,9.80
2006,09,09,17,44,16.40
2006,09,09,17,45,10.80
2006,09,09,17,46,7.50
2006,09,09,17,47,9.10
2006,09,09,17,48,13.60
2006,09,09,17,49,11.60